Lid_Strength_Index
12 12 12 13 13 12 14 13 16 14 14 11 9 9 8 7 7 7 6 6 5 6 6 6 6 6 7 4 4 4 3 3 3 2 2 2 2 2 2 2 1 2 2 2
15 12 12 13 12 12 12 12 13 13 13 8 8 8 8 7 7 7 6 6 7 6 6 6 6 6 7 4 4 3 3 3 3 3 2 2 2 2 2 2 2 2 3 3
16 12 13 16 13 12 12 11 12 15 11 9 9 9 8 7 7 7 7 7 7 7 7 6 7 7 7 3 3 3 3 3 3 3 3 3 2 2 2 2 3 3 3 3
16 14 20 13 10 10 11 10 10 10 9 8 8 8 7 6 6 7 6 7 7 7 7 7 7 7 6 3 4 3 3 3 3 3 3 3 3 3 3 4 4 4 4 4
17 17 15 12 11 12 13 12 9 10 9 8 7 7 7 5 6 6 7 7 7 7 7 7 7 7 6 3 3 4 4 3 3 3 3 3 3 4 4 5 5 5 4 4
16 19 21 14 10 8 9 15 9 9 9 9 8 12 9 6 5 5 6 7 7 7 7 7 7 7 7 4 4 4 3 3 3 3 4 3 4 5 5 5 5 4 4 3
16 17 15 10 9 8 16 14 9 9 8 8 10 8 6 5 5 6 6 7 6 7 8 7 7 6 5 4 4 3 3 2 2 2 3 4 4 5 5 4 4 4 5 5
15 17 19 8 9 13 10 8 7 7 7 7 7 6 6 6 6 6 7 7 7 8 8 7 7 6 5 4 3 2 3 3 3 3 3 4 4 4 4 4 5 5 5 5
13 14 9 7 8 7 8 8 7 7 6 6 7 6 6 6 6 7 7 8 8 8 9 8 6 6 5 3 2 2 3 3 3 3 3 4 3 3 4 4 4 4 4 5
13 10 10 9 7 6 6 6 6 5 6 6 7 7 7 7 7 7 7 7 7 8 9 8 6 6 4 3 2 3 4 3 3 4 4 3 3 3 3 3 3 4 4 5
12 11 10 8 7 6 7 6 5 6 6 7 7 7 7 7 7 8 8 8 7 8 8 7 6 6 3 2 2 3 3 3 3 3 3 6 9 6 3 3 3 3 3 4
13 9 9 9 7 5 6 6 7 7 8 8 8 9 9 9 8 7 8 8 8 8 8 7 5 5 4 2 2 3 4 3 3 3 4 5 6 7 14 13 11 10 9 5
9 6 6 6 6 6 8 9 8 8 8 10 9 10 9 9 9 8 8 9 8 8 7 6 6 5 3 2 2 3 3 3 4 4 4 4 4 5 7 11 13 13 12 10
5 6 7 7 9 8 8 8 8 9 9 10 10 9 9 9 9 9 9 8 8 7 7 7 7 6 3 2 2 3 3 8 3 3 3 4 4 4 5 4 4 6 12 11
6 5 6 7 7 7 8 9 10 11 10 10 10 9 8 8 9 8 8 7 7 7 7 7 7 5 2 2 3 3 3 3 3 3 4 5 4 5 4 4 4 6 8 11
7 7 8 8 9 9 11 10 11 11 11 10 9 8 7 6 7 7 7 7 7 7 7 7 6 3 2 2 2 3 3 8 6 4 4 4 4 4 4 5 5 4 5 7
9 10 9 10 9 10 13 10 11 11 10 10 9 8 5 6 7 7 6 6 6 6 6 4 3 2 2 2 2 3 3 4 10 3 4 4 4 4 4 4 4 4 5 6
8 8 8 9 10 12 11 10 11 11 10 9 8 7 7 7 7 6 6 5 4 6 7 8 6 4 2 2 2 2 3 3 3 3 3 4 4 4 4 5 5 5 5 8
7 8 9 9 10 12 12 11 10 10 9 9 9 9 9 9 8 8 8 9 10 9 10 10 10 7 5 7 4 2 2 3 3 3 3 8 5 4 4 5 5 4 4 4
7 8 9 10 9 10 11 12 11 10 10 10 10 10 11 11 10 9 10 12 12 13 13 10 7 5 5 7 8 2 2 2 3 3 3 3 3 4 4 7 5 4 4 3
7 9 10 10 10 11 12 13 12 13 12 11 12 13 12 13 14 13 13 14 14 14 13 12 10 8 7 8 5 2 2 2 3 3 3 3 3 3 4 4 4 4 4 6
7 10 10 11 11 11 12 11 11 12 12 12 13 13 13 14 14 14 15 16 15 17 13 12 12 15 11 13 6 4 3 3 3 3 3 3 3 3 4 4 4 5 7 8
8 9 10 11 11 11 11 11 11 12 13 13 13 13 14 15 15 16 16 15 14 16 15 14 15 15 15 9 10 9 7 6 6 3 3 3 3 4 4 6 7 8 9 10
8 10 10 10 10 11 12 11 11 11 12 13 13 13 15 15 15 14 14 15 16 16 16 16 15 15 13 12 11 11 11 10 9 9 9 11 9 10 10 10 11 12 13 13
7 9 10 11 12 12 11 11 12 12 12 12 13 13 14 13 15 15 15 15 16 16 15 17 17 15 13 13 13 14 14 12 12 11 11 11 12 12 13 13 13 14 14 14
6 9 10 11 11 11 11 12 12 12 13 13 13 13 13 13 14 14 15 15 15 17 16 16 16 16 16 14 14 15 15 15 14 14 14 14 15 15 15 14 15 15 15 15
7 8 9 10 11 11 11 11 12 13 13 13 14 13 13 14 14 15 15 15 16 16 16 16 16 16 16 16 16 17 17 17 16 16 16 16 16 17 17 17 17 17 17 17